SL-19 DEB, 23564

Orbit data source: Space-Track

SL-19 DEB, 23564 is space debris in LEO originally from a launch on Mon, 26 Dec 1994 UTC launched from the Tyuratam Missile And Space Complex (TTMTR). Debris objects in space refer to the collection of defunct objects orbiting the Earth. Examples of debris include non-operational satellites, rocket bodies, and fragments generated from explosions, collisions, or faulty payload assembly.

Loading next visibility...
Identifier
23564, 1994-085V
Orbit
LEO
Country
Flag of CISCIS
Related business
Manufacturer
Unknown
Mission
Spacecraft
Bus & Motor
Unknown
Mass
Unknown
Launch date (UTC)
1994-12-26 (31 years ago)
Launch vehicle
Unknown
Launch site
Tyuratam Missile And Space Complex (TTMTR)
Object type
Payload
Rocket body
Debris
Shape & HBR
Unknown shape, 0.1 m
Radar Cross Section
Medium (>0.1 m² and <1 m²)

Expand to show TLE details & history
Last TLE update: 3 days ago

TLE from 3 days ago
0 SL-19 DEB
1 23564U 94085V   26170.33178038 -.00000053  00000-0 -26164-3 0  9997
2 23564  64.9931 142.9769 0181745  77.8720  69.9805 11.34898160288410
Epoch: 2026-06-19T07:57Z
TLE epoch observation values (Epoch: 2026-06-19T07:57:45.824Z)
Latitude
27.14827°
Longitude
-77.79939°
Altitude
1,938.774 km
Speed
6.947 km/s
True Right ascension
20h 36m 48s
True Declination
27° 01' 43"
Sunlit
Object was in daylight at epoch
Visualization orbit readout
Latitude
Unknown
Longitude
Unknown
Altitude
Unknown
Speed
Unknown
Apparent Right ascension
Unknown
Apparent Declination
Unknown
Sunlit
N/A
Visualization observer readout
Local Sidereal Time
23:27:19
Azimuth
Unknown
Elevation
Unknown
Doppler factor
Unknown
Orbital elements
Apogee altitude
2,136.96 km
Perigee altitude
1,832.97 km
Semi-major axis
8,363.102 km
Eccentricity
0.01817
Inclination
64.9931°
RAAN
142.9769°
Arg. of periapsis
77.872°
True anomaly
71.95225°
Mean anomaly
69.9805°
Eccentric anomaly
70.96488°
Mean motion
2.83787 °/min
Orbital period
126.86 mins
BSTAR
-0.00026164
Loading maneuver chart data...
Computing Atmospheric mass density...
Loading historical data...
Loading historical data...
Loading historical data...
Loading historical data...
Loading historical data...
Loading historical data...
Loading historical data...

Documentation

Showing up to 5 results
|